Regional Weather Roundup
Issued by NWS

Home | Current Version | Previous Version | Text Only | Print | Product List | Glossary On
Versions: 1 2 3 4 5 6 7 8 9 10 11 12 13 14 15 16 17 18 19 20 21 22 23 24 25 26 27 28 29 30 31 32 33 34 35 36 37 38 39 40 41 42 43 44 45 46 47 48 49 50
000
ASUS46 KLOX 250313
RWRCA

SOUTHERN CALIFORNIA WEATHER ROUNDUP
NATIONAL WEATHER SERVICE OXNARD CALIFORNIA
700 PM PST FRI NOV 24 2017

NOTE: "FAIR" INDICATES FEW OR NO CLOUDS BELOW 12,000 FEET WITH NO
SIGNIFICANT WEATHER AND/OR OBSTRUCTIONS TO VISIBILITY.

  -  STATIONS PRECEEDED BY AN ASTERISK (*) ARE NOT NWS OR FAA
     STATIONS AND ARE NOT SUBJECT TO NWS AND FAA QUALITY CONTROL.

CAZ041-042-087-250400-
LA AND ORANGE COUNTY COASTAL AREAS


CITY           SKY/WX    TMP DP  RH WIND       PRES   REMARKS
L.A. DOWNTOWN  CLEAR     70  51  51 CALM      29.87R
L.A. AIRPORT   PTCLDY    70  52  52 CALM      29.88R
LONG BEACH     PTCLDY    68  59  73 SE3       29.87R

CITY           SKY/WX    TMP DP  RH WIND       PRES   REMARKS
FULLERTON      PTCLDY    68  53  58 CALM      29.87R
*GETTY CENTER    N/A     73  41  31 CALM        N/A
HAWTHORNE      CLEAR     71  53  52 CALM      29.88R
*LEO CARRILLO    N/A     64  42  44 NE3         N/A
*LOS ALAMITOS  PTCLDY    63  58  82 CALM      29.87R
*REDONDO BEACH   N/A     65  56  70 CALM      29.87R
SANTA ANA      PTCLDY    68  58  70 CALM      29.87R
STA MONICA APT CLEAR     67  60  78 CALM      29.88R
*STA MON PIER    N/A     65  58  78 CALM      29.85R
TORRANCE       PTCLDY    64  54  68 CALM      29.87R
*UCLA            N/A     70  45  40 CALM      29.86R

$$

CAZ547-548-048-250400-
LA COUNTY VALLEYS AND INLAND EMPIRE


CITY           SKY/WX    TMP DP  RH WIND       PRES   REMARKS
BURBANK        CLEAR     73  50  44 CALM      29.89R
VAN NUYS       CLEAR     73  46  38 CALM      29.89R

CITY           SKY/WX    TMP DP  RH WIND       PRES   REMARKS
CORONA AIRPORT PTCLDY    61  42  49 CALM      29.90R
*CHATSWORTH      N/A     71  43  36 CALM      29.86R
CHINO          PTCLDY    67  46  47 CALM      29.90R
*CLAREMONT       N/A     66  40  38 CALM        N/A
MARCH AFB      CLEAR     60  37  42 CALM      29.92R
ONTARIO        PTCLDY    73  43  33 W5        29.90R
*PASADENA        N/A     73  54  49 CALM        N/A
POMONA         CLEAR     66  46  48 CALM      29.93R
RIVERSIDE      CLEAR     72  46  39 CALM      29.90R
SAN BERNARDINO PTCLDY    70  36  28 CALM      29.91R
*SAN RAFAEL HI   N/A     72  46  40 CALM        N/A
*SAUGUS          N/A     75  39  27 NW2         N/A
*WHITEMAN AP   CLEAR     72  45  37 CALM      29.94R
*WOODLAND HILL   N/A     66  41  39 SE1         N/A

$$

CAZ054-055-250400-
LA AND SAN BERNARDINO COUNTY MOUNTAINS


CITY           SKY/WX    TMP DP  RH WIND       PRES   REMARKS
*ACTON           N/A     64  34  33 CALM        N/A
*BIG BEAR AIRP CLEAR     45  25  45 CALM      30.23R
*BIG PINES       N/A     58  26  29 CALM        N/A
*CHILAO          N/A     67  29  24 CALM        N/A
SANDBERG       PTCLDY    63  37  38 N18       30.10R
*WARM SPRINGS    N/A     70  32  24 W14         N/A

$$

CAZ028-029-059-060-099-250400-
ANTELOPE VALLEY AND SURROUNDING AREAS


CITY           SKY/WX    TMP DP  RH WIND       PRES   REMARKS
LANCASTER      PTCLDY    68  35  29 W13       29.97S
PALMDALE       PTCLDY    66  35  31 S5        29.99R

CITY           SKY/WX    TMP DP  RH WIND       PRES   REMARKS
29 PALMS       PTCLDY    67  29  24 S7        30.02R
BARSTOW/DAGGET PTCLDY    68  33  27 CALM      29.96R
BISHOP         CLEAR     47  31  53 W6        30.05R
CHINA LAKE     CLEAR     62  31  31 CALM      29.96R
EDWARDS AFB    PTCLDY    64  33  31 S9        29.94R
MOJAVE         CLEAR     70  36  28 W16       29.97S
NEEDLES        PTCLDY    70  34  26 W8        29.91R
VICTORVILLE    CLEAR     66  30  26 CALM      30.00R HAZE

$$

CAZ039-040-250400-
VENTURA AND SANTA BARBARA COUNTY COAST


CITY           SKY/WX    TMP DP  RH WIND       PRES   REMARKS
CAMARILLO      CLEAR     66  54  65 CALM      29.86R
OXNARD AIRPORT CLEAR     63  54  72 CALM      29.86S
*POINT MUGU    PTCLDY    62  52  69 CALM      29.87R
SBA APT/GOLETA PTCLDY    60  59  96 SE5       29.85R
*SANTA BARBARA   N/A     67  55  66 CALM      29.93R
*VENTURA         N/A     66  47  50 CALM      29.83R

$$

CAZ044-045-250400-
VENTURA COUNTY VALLEYS


CITY           SKY/WX    TMP DP  RH WIND       PRES   REMARKS
*SIMI VALLEY     N/A     67  44  43 NW1       29.84R
*WESTLAKE VILL   N/A     59  43  55 E1        29.87R
*OJAI            N/A     60  46  58 CALM      29.83S
*FILLMORE        N/A     63  48  57 CALM      29.91R

$$

CAZ053-250400-
VENTURA COUNTY MOUNTAINS


CITY           SKY/WX    TMP DP  RH WIND       PRES   REMARKS
*LOCKWOOD VLY    N/A     54  36  50 NW2         N/A
*FRAZIER MTN     N/A     55  20  25 NW8       29.84R
*ROSE VALLEY     N/A     52  32  46 MISG        N/A

$$

CAZ034-035-036-250400-
CENTRAL COAST AND SANTA YNEZ VALLEY


CITY           SKY/WX    TMP DP  RH WIND       PRES   REMARKS
SAN LUIS OBISP CLEAR     71  51  49 CALM      29.90R
SANTA MARIA    MOCLDY    65  55  70 W3        29.89S

CITY           SKY/WX    TMP DP  RH WIND       PRES   REMARKS
*LOMPOC        PTCLDY    60  56  86 E3        29.89S
*PISMO BEACH     N/A     74  54  48 CALM      29.89R

$$

CAZ037-038-051-250400-
SAN LUIS OBISPO COUNTY INTERIOR AND CUYAMA VALLEY


CITY           SKY/WX    TMP DP  RH WIND       PRES   REMARKS
*CUYAMA          N/A     60  52  75 CALM      29.97S
PASO ROBLES    CLEAR     64  52  64 E10       29.98R

$$

CAZ032-033-061-250400-
SOUTHERN DESERTS


CITY           SKY/WX    TMP DP  RH WIND       PRES   REMARKS
BLYTHE         CLEAR     69  36  29 NW5       29.86R
IMPERIAL       CLEAR     72  43  35 CALM      29.84R
PALM SPRINGS   CLEAR     75  46  35 N3        29.89R
THERMAL        CLEAR     63  47  55 NE3       29.83R

$$

ELSEWHERE ACROSS THE WESTERN UNITED STATES AND MEXICO


CITY           SKY/WX    TMP DP  RH WIND       PRES   REMARKS
DEATH VALLEY,    N/A     64  27  24 CALM        N/A
DENVER, CO     PTCLDY    40  31  70 S12       30.04R WCI  33
GRAND CANYON,  PTCLDY    36  17  46 CALM      30.20R
HONOLULU, HI   MOCLDY    77  57  50 NE13      29.98S
KAHULUI, MAUI  PTCLDY    73  64  73 NE16G26   29.99R
LAKE TAHOE, CA MOCLDY    44  37  76 CALM      30.19R
LAS VEGAS, NV  PTCLDY    67  38  34 SW3       29.98R
MAMMOTH LAKES, FAIR      51  12  20 CALM      30.21S
MEXICO CITY, M CLEAR     59  37  44 E6        30.29R
PHOENIX, AZ    CLEAR     73  39  29 E7        29.88R
PORTLAND, OR   PTCLDY    46  43  89 E9        30.11S
RENO, NV       CLOUDY    59  30  33 NW5       30.12R
SALT LAKE CITY CLOUDY    50  41  71 NW6       30.12R
SAN DIEGO, CA  CLEAR     68  63  84 S3        29.90R
SAN FRANCISCO, MOCLDY    62  54  74 W6        30.01R
SAN JOSE, CA   MOCLDY    65  56  72 SW3       30.02R
SEATTLE, WA    CLOUDY    50  42  74 S6        30.07S
TIJUANA, MEX   CLEAR     64  59  82 CALM      29.92

$$

STATION/POSITION TIME  TEMP    WIND        PRES    VSBY  WAVE
                       AIR SEA DIR/SP/G                  HT/PER
                 (UTC) (F)     (DEG/KT/KT) (MB)    (MI)  (FT/S)
POINT ARGUELLO B NOT AVBL
WEST SANTA BARBA 0300   62 59  310/ 16/ 19 1010.6
POINT CONCEPTION NOT AVBL
EAST SANTA BARBA 0300   62 62  220/  6/  8 1011.5
SANTA MONICA BAY 0300      64  160/  2/  2 1011.1



USA.gov is the U.S. government's official web portal to all federal, state and local government web resources and services.